Tracking 20621 objects as of 31-Mar-2020
HD Live streaming from Space Station
objects crossing your sky now

TRACE

Track TRACE now!
10-day predictions
TRACE is classified as:


NORAD ID: 25280
Int'l Code: 1998-020A
Perigee: 516.1 km
Apogee: 550.0 km
Inclination: 97.5 °
Period: 95.2 minutes
Semi major axis: 6904 km
RCS: 1.591 m2 (large)
Launch date: April 2, 1998
Source: United States (US)
Launch site: Pegasus launched from Western Range Air Space (WRAS)

Coordinates with SOHO; image the solar corona and transition region at high angular and temporal resolution.
aabbcc
Your satellite tracking list
Your tracking list is empty




NASA's NSSDC Master Catalog

Two Line Element Set (TLE):
1 25280U 98020A   20090.76934446 +.00000420 +00000-0 +27065-4 0  9990
2 25280 097.4729 282.4452 0024590 117.3355 243.0384 15.13376674203977
Source of the keplerian elements: AFSPC